STARLINK-37024, 68106

Orbit data source: Space-Track

STARLINK-37024, 68106 is a payload satellite owned by SpaceX/Seattle (US) in SSO that was launched on Sun, 08 Mar 2026 UTC via an FALCON 9 launch vehicle from the Air Force Western Test Range (AFWTR). Payload-class satellites include a variety of spacecraft equipped with specific instruments for various scientific and technological missions. These include communications satellites like Starlink; space stations such as the ISS; scientific satellites like the Hubble; Earth observation satellites from companies like Planet Labs, Umbra, and HawkEye 360; GPS; miniature CubeSats for education and research; and military/defense satellites.

Loading next visibility...
Identifier
68106, 2026-044F
Orbit
SSO
Country
Flag of USUS
Related business
Manufacturer
SpaceX/Seattle
Mission
Operational spacecraft
Bus & Motor
STARLINK V2MO, Unknown motor
Mass
575 kg wet, ~530 kg dry
Launch date (UTC)
2026-03-08 (1 month ago)
Launch vehicle
FALCON 9
Launch site
Air Force Western Test Range (AFWTR)
Object type
Payload
Rocket body
Debris
Shape & HBR
Unknown shape, 17.7 m
Radar Cross Section
RCS unknown

Expand to show TLE details & history
Last TLE update: 16 hours ago

TLE from 16 hours ago
0 STARLINK-37024
1 68106U 26044F   26104.85514996  .00013496  00000-0  41953-3 0  9995
2 68106  97.2810  66.0188 0001803  98.6050 261.5397 15.33450754  7129
Epoch: 2026-04-14T20:31Z
TLE epoch observation values (Epoch: 2026-04-14T20:31:24.956Z)
Latitude
-0.00004°
Longitude
-84.86059°
Altitude
468.82 km
Speed
7.632 km/s
True Right ascension
04h 24m 04s
True Declination
0° 00' 00"
Sunlit
Object was in daylight at epoch
Visualization orbit readout
Latitude
Unknown
Longitude
Unknown
Altitude
Unknown
Speed
Unknown
Apparent Right ascension
Unknown
Apparent Declination
Unknown
Sunlit
N/A
Visualization observer readout
Local Sidereal Time
19:29:05
Azimuth
Unknown
Elevation
Unknown
Doppler factor
Unknown
Orbital elements
Apogee altitude
463.702 km
Perigee altitude
461.235 km
Semi-major axis
6,840.606 km
Eccentricity
0.00018
Inclination
97.281°
RAAN
66.0188°
Arg. of periapsis
98.605°
True anomaly
261.51926°
Mean anomaly
261.5397°
Eccentric anomaly
261.52948°
Mean motion
3.8362 °/min
Orbital period
93.84 mins
BSTAR
0.00041953
Loading maneuver chart data...
Computing Atmospheric mass density...
Loading historical data...
Loading historical data...
Loading historical data...
Loading historical data...
Loading historical data...
Loading historical data...
Loading historical data...

Documentation

Showing up to 5 results
|